Retour au catalogue

STARLINK-32933

ActifCommunicationsVLEO
NORAD 63082·PAYLOAD·🇺🇸 United States

Lancé Feb 23, 2025 depuis Vandenberg Space Force Base

Loading…

Prochains Passages (prochaines 24 heures)

TLE

FraisSource: CelesTrak SupGP

Époque: Sep 15, 2026, 03:06 UTC

1 63082C 25037F   26258.12965278 -.00038421  00000+0 -13366-2 0  2587
2 63082  70.0010 235.0123 0003268 267.4760  80.4065 15.29597449    15

Suivez STARLINK-32933 en temps réel avec AllMySat

Download on the App Store